This demonstration page uses our WeatherBlox Daily Observations layout. Learn more.

Left ArrowRight Arrow

38.88101, -77.10428

Hourly Observations for May 25, 2015

Temp ( °F °C ) Dew Point ( °F °C ) Humidity (%) Winds ( mph kmh ) Pressure ( in mb ) Visibility ( mi km ) Precip ( " mm )
12:52 am 00:52 Mostly Cloudy 72 22.2 59 15 64 64 S 7 11 30.26 1025 10 16 0.00 0.00
1:52 am 01:52 Partly Cloudy 71 21.7 58 14.4 63 63 S 9 15 30.25 1025 10 16 0.00 0.00
2:52 am 02:52 Mostly Clear 68 20 57 13.9 68 68 S 8 13 30.25 1024 10 16 0.00 0.00
3:52 am 03:52 Mostly Clear 69 20.6 59 15 70 70 S 9 15 30.26 1025 10 16 0.00 0.00
4:52 am 04:52 Mostly Clear 67 19.4 58 14.4 73 73 S 9 15 30.25 1025 10 16 0.00 0.00
5:52 am 05:52 Partly Cloudy 67 19.4 58 14.4 73 73 S 9 15 30.25 1024 10 16 0.00 0.00
6:52 am 06:52 Mostly Cloudy 68 20 58 14.4 70 70 S 14 22 30.27 1025 10 16 0.00 0.00
7:52 am 07:52 Mostly Cloudy 71 21.7 58 14.4 63 63 SSW 13 20 30.28 1026 10 16 0.00 0.00
8:52 am 08:52 Mostly Cloudy 74 23.3 59 15 60 60 SW 12 19 30.29 1026 10 16 0.00 0.00
9:52 am 09:52 Mostly Cloudy 75 23.9 61 16.1 62 62 S 13 20 30.28 1025 10 16 0.00 0.00
10:52 am 10:52 Mostly Cloudy 79 26.1 61 16.1 54 54 S 13 20 30.28 1025 10 16 0.00 0.00
11:52 am 11:52 Mostly Cloudy 83 28.3 62 16.7 49 49 S 13 20 30.27 1025 10 16 0.00 0.00
12:52 pm 12:52 Mostly Cloudy 82 27.8 63 17.2 53 53 S 16 26 30.25 1024 10 16 0.00 0.00
1:52 pm 13:52 Mostly Cloudy 84 28.9 60 15.6 44 44 S 16 26 30.24 1024 10 16 0.00 0.00
2:52 pm 14:52 Mostly Cloudy 85 29.4 61 16.1 45 45 S 13 20 30.22 1023 10 16 0.00 0.00
3:52 pm 15:52 Mostly Cloudy 84 28.9 60 15.6 44 44 S 16 26 30.21 1023 10 16 0.00 0.00
4:52 pm 16:52 Mostly Cloudy 85 29.4 59 15 42 42 S 17 28 30.21 1023 10 16 0.00 0.00
5:52 pm 17:52 Mostly Cloudy 84 28.9 60 15.6 44 44 S 12 19 30.20 1023 10 16 0.00 0.00
6:52 pm 18:52 Mostly Cloudy 83 28.3 58 14.4 43 43 SSW 15 24 30.19 1022 10 16 0.00 0.00
7:52 pm 19:52 Mostly Cloudy 81 27.2 58 14.4 45 45 S 13 20 30.19 1023 10 16 0.00 0.00
8:52 pm 20:52 Mostly Cloudy 77 25 64 17.8 64 64 S 8 13 30.19 1023 10 16 0.00 0.00
9:52 pm 21:52 Mostly Cloudy 74 23.3 63 17.2 69 69 S 7 11 30.21 1023 10 16 0.00 0.00
10:52 pm 22:52 Mostly Cloudy 75 23.9 60 15.6 60 60 S 9 15 30.22 1023 10 16 0.00 0.00
11:52 pm 23:52 Mostly Cloudy 73 22.8 62 16.7 69 69 S 9 15 30.21 1023 10 16 0.00 0.00

Powered by AerisWeather